Home > Weather > Broken Hill > Past weeks

Flag for Australia Past Weather in Broken Hill, New South Wales, Australia — Yesterday and Last 2 Weeks

Now
42 °F

Quite cool.


Feels Like: 42 °F
Forecast: 43 / 63 °F
Wind: 1 mph from North

Location: Yunta

Current Time: Jul 29, 2016 at 11:36:18 PM

Latest Report: Jul 29, 2016 at 10:30 PM


Visibility: N/A

Pressure: 30.23 "Hg

Humidity: 76%

Dew Point: 35 °F

Location of Broken HillLocation

Past Weather in Broken Hill — Graph

°F

Broken Hill Temperature Yesterday

Maximum temperature yesterday: 58 °F (at 4:30 PM)
Minimum temperature yesterday: 31 °F (at 4:30 AM)
Average temperature yesterday: 44 °F

High & Low Weather Summary for the Past Weeks

 TemperatureHumidityPressure
High73 °F (Jul 21, 3:00 PM)94% (Jul 21, 4:30 AM)30.55 "Hg (Jul 21, 4:30 AM)
Low25 °F (Jul 16, 6:00 AM)33% (Jul 22, 6:00 PM)29.64 "Hg (Jul 22, 3:00 PM)
Average51 °F70%30.13 "Hg
* Reported Jul 14 10:30 PM — Jul 29 10:30 PM, Broken Hill, Weather by CustomWeather, © 2016

Note: Actual official high and low records may vary slightly from our data, if they occured in-between our weather recording intervals... More about our weather records

Advertising

Broken Hill Weather History for the Previous 24 Hours

Scroll right to see more
 ConditionsComfort  
Time TempWeatherWind HumidityBarometerVisibility
10:30 PM
Fri, Jul 29
42 °FQuite cool.1 mph76%30.23 "HgN/A
9:00 PM44 °FQuite cool.5 mph72%30.23 "HgN/A
8:30 PM46 °FCool.3 mph68%30.23 "HgN/A
7:30 PM51 °FCool.6 mph62%30.22 "HgN/A
6:00 PM54 °FCool.7 mph52%30.20 "HgN/A
5:30 PM58 °FRefreshingly cool.6 mph44%30.19 "HgN/A
4:30 PM62 °FMild.7 mph35%30.19 "HgN/A
3:00 PM64 °FMild.6 mph35%30.19 "HgN/A
2:30 PM64 °FMild.8 mph36%30.19 "HgN/A
1:30 PM63 °FMild.7 mph38%30.22 "HgN/A
12:00 PM60 °FRefreshingly cool.6 mph48%30.26 "HgN/A
9:00 AM44 °FQuite cool.No wind78%30.32 "HgN/A
8:30 AM41 °FQuite cool.No wind87%30.32 "HgN/A
7:30 AM32 °FChilly.2 mph92%30.31 "HgN/A
6:00 AM34 °FChilly.6 mph92%30.29 "HgN/A
4:30 AM30 °FChilly.No wind88%30.30 "HgN/A
3:00 AM32 °FChilly.1 mph89%30.29 "HgN/A
2:30 AM33 °FChilly.1 mph89%30.29 "HgN/A
1:30 AM34 °FChilly.No wind86%30.31 "HgN/A
12:00 AM36 °FChilly.2 mph83%30.32 "HgN/A
11:30 PM
Thu, Jul 28
37 °FChilly.3 mph85%30.32 "HgN/A
Weather by CustomWeather, © 2016

See weather overviewHow to use our weather pages